Stations météo

réclame
Mon MeteoGroup
Grosseto, Italie (16206): Température de l'air & dewpoint: 08.12.2017 18:00:00 - 14.12.2017 18:00:00 (CET)Grosseto, Italie (16206): Vitesse du vent: 08.12.2017 18:00:00 - 14.12.2017 18:00:00 (CET)Grosseto, Italie (16206): Direction du vent: 08.12.2017 18:00:00 - 14.12.2017 18:00:00 (CET)Grosseto, Italie (16206): reduced air pressure: 08.12.2017 18:00:00 - 14.12.2017 18:00:00 (CET)Grosseto, Italie (16206): visibility: 08.12.2017 18:00:00 - 14.12.2017 18:00:00 (CET)
Date & Time tt [°C] td [°C] ff [km/h] ff [knt] dd ppp [hPa] vv [km]
14.12.2017 18:00:00 - - - - - - -
14.12.2017 17:00:00 13,6 12,0 8 4 SSE 1010,5 8
14.12.2017 16:00:00 14,4 12,1 8 4 S 1010,5 8
14.12.2017 15:00:00 15,2 12,2 5 3 S 1010,6 8
14.12.2017 14:00:00 15,0 11,8 15 8 WSW 1011,0 8
14.12.2017 13:00:00 15,2 11,8 24 13 SW 1011,3 8
14.12.2017 12:00:00 14,8 11,0 29 16 SW 1011,8 8
14.12.2017 11:00:00 14,8 10,8 26 14 SW 1012,8 8
14.12.2017 10:00:00 14,0 9,8 13 7 S 1012,9 10
14.12.2017 09:00:00 13,4 9,7 21 11 SSW 1012,7 20
14.12.2017 08:00:00 13,4 9,3 22 12 SSW 1012,6 20
14.12.2017 07:00:00 9,2 5,4 15 8 SE 1012,7 15
14.12.2017 06:00:00 7,2 3,1 13 7 SE 1013,2 20
14.12.2017 05:00:00 7,8 2,1 15 8 SE 1013,9 20
14.12.2017 04:00:00 8,2 2,7 11 6 SE 1014,4 20
14.12.2017 03:00:00 7,0 3,8 13 7 ESE 1015,3 20
14.12.2017 02:00:00 7,0 3,6 5 3 NE 1016,3 20
14.12.2017 01:00:00 7,0 3,6 9 5 SE 1016,5 20
14.12.2017 00:00:00 7,0 4,1 9 5 ESE 1017,4 20
13.12.2017 23:00:00 7,0 4,3 11 6 ESE 1017,9 20
13.12.2017 22:00:00 7,0 4,3 9 5 ESE 1017,9 30
13.12.2017 21:00:00 7,6 4,0 8 4 ESE 1018,0 15
13.12.2017 20:00:00 9,0 3,2 2 1 NE 1018,0 15
13.12.2017 19:00:00 11,0 2,8 5 3 N 1017,9 15
13.12.2017 18:00:00 11,8 2,5 4 2 N 1017,8 20
13.12.2017 17:00:00 12,4 3,1 8 4 NW 1017,6 25
13.12.2017 16:00:00 14,0 2,9 15 8 WNW 1017,0 30
13.12.2017 15:00:00 14,8 5,0 9 5 SW 1016,8 30
13.12.2017 14:00:00 15,0 6,8 11 6 SW 1016,8 30
13.12.2017 13:00:00 14,4 7,5 4 2 ESE 1017,2 30
13.12.2017 12:00:00 12,2 7,5 9 5 NE 1017,7 30
13.12.2017 11:00:00 11,2 7,5 9 5 ENE 1018,2 40
13.12.2017 10:00:00 8,6 6,0 8 4 N 1018,2 30
13.12.2017 09:00:00 7,0 4,7 8 4 N 1017,8 30
13.12.2017 08:00:00 7,0 4,8 8 4 NE 1017,2 15
13.12.2017 07:00:00 8,2 6,0 8 4 NNE 1016,9 5
13.12.2017 06:00:00 8,6 6,4 11 6 NNE 1016,1 15
13.12.2017 05:00:00 9,6 7,4 8 4 N 1016,1 15
13.12.2017 04:00:00 10,4 8,2 8 4 NNE 1016,1 15
13.12.2017 03:00:00 10,8 8,5 9 5 N 1015,9 15
13.12.2017 02:00:00 10,8 8,5 9 5 N 1015,8 15
13.12.2017 01:00:00 10,8 8,6 5 3 E 1015,9 15
13.12.2017 00:00:00 11,0 8,7 8 4 N 1015,9 10
12.12.2017 23:00:00 11,0 8,9 8 4 ESE 1015,8 8
12.12.2017 22:00:00 11,0 9,1 13 7 E 1015,6 7
12.12.2017 21:00:00 11,0 9,2 5 3 N 1015,7 6
12.12.2017 20:00:00 11,2 10,0 8 4 N 1015,1 6
12.12.2017 19:00:00 11,4 10,1 9 5 NNE 1014,4 6
12.12.2017 18:00:00 12,0 11,1 11 6 ENE 1013,8 6
12.12.2017 17:00:00 12,0 11,2 11 6 ENE 1013,0 7
12.12.2017 16:00:00 12,6 12,0 8 4 N 1012,7 7
12.12.2017 15:00:00 13,8 10,8 16 9 N 1011,9 12
12.12.2017 14:00:00 14,4 11,5 13 7 SW 1011,3 12
12.12.2017 13:00:00 13,8 13,0 4 2 N 1011,4 10
12.12.2017 12:00:00 14,4 11,5 8 4 N 1011,5 10
12.12.2017 11:00:00 14,2 12,2 13 7 SSW 1011,2 12
12.12.2017 10:00:00 14,2 12,6 2 1 E 1010,3 15
12.12.2017 09:00:00 14,4 10,6 8 4 N 1009,9 10
12.12.2017 08:00:00 15,8 10,8 5 3 WSW 1008,5 12
12.12.2017 07:00:00 17,0 11,1 29 16 SSW 1007,1 10
12.12.2017 06:00:00 17,0 12,5 29 16 S 1006,2 10
12.12.2017 05:00:00 17,0 13,9 26 14 S 1005,8 8
12.12.2017 04:00:00 16,8 12,4 26 14 S 1005,8 8
12.12.2017 03:00:00 16,8 11,5 24 13 SSE 1004,6 8
12.12.2017 02:00:00 17,0 12,5 31 17 SSE 1003,9 8
12.12.2017 01:00:00 17,0 12,3 37 20 SSE 1003,6 8
12.12.2017 00:00:00 16,8 12,4 41 22 SSE 1003,2 10
11.12.2017 23:00:00 15,8 12,9 42 23 SSE 1003,2 12
11.12.2017 22:00:00 15,8 13,1 41 22 SSE 1002,9 10
11.12.2017 21:00:00 16,2 13,5 41 22 SSE 1002,4 10
11.12.2017 20:00:00 16,2 13,3 37 20 SSE 1002,4 10
11.12.2017 19:00:00 16,4 12,2 29 16 SSE 1001,4 10
11.12.2017 18:00:00 16,4 12,4 35 19 SSE 1001,8 10
11.12.2017 17:00:00 16,4 12,5 26 14 S 1001,8 10
11.12.2017 16:00:00 16,4 12,0 31 17 S 1001,8 15
11.12.2017 15:00:00 16,4 11,8 29 16 SSE 1001,3 15
11.12.2017 14:00:00 16,4 12,5 29 16 S 1001,8 15
11.12.2017 13:00:00 16,0 12,4 35 19 S 1001,6 15
11.12.2017 12:00:00 16,2 12,4 34 18 S 1002,3 15
11.12.2017 11:00:00 16,0 11,8 37 20 SSE 1002,8 15
11.12.2017 10:00:00 16,0 11,8 39 21 S 1002,8 15
11.12.2017 09:00:00 15,8 11,2 31 17 S 1002,8 9
11.12.2017 08:00:00 15,4 11,2 41 22 S 1002,9 9
11.12.2017 07:00:00 14,8 12,3 34 18 S 1002,5 10
11.12.2017 06:00:00 14,8 12,3 28 15 S 1002,8 10
11.12.2017 05:00:00 15,8 13,8 54 29 S 1002,8 10
11.12.2017 04:00:00 14,8 12,5 37 20 S 1003,6 10
11.12.2017 03:00:00 14,6 12,1 34 18 S 1004,4 10
11.12.2017 02:00:00 14,6 12,3 34 18 S 1004,2 10
11.12.2017 01:00:00 14,6 11,9 35 19 S 1004,8 10
11.12.2017 00:00:00 14,6 11,9 35 19 S 1004,9 10
10.12.2017 23:00:00 14,6 13,5 34 18 S 1005,9 10
10.12.2017 22:00:00 14,4 13,0 34 18 S 1006,2 20
10.12.2017 21:00:00 14,0 8,8 35 19 S 1006,9 12
10.12.2017 20:00:00 14,2 9,2 31 17 S 1007,6 12
10.12.2017 19:00:00 14,0 8,8 31 17 S 1007,5 9
10.12.2017 18:00:00 13,0 8,7 28 15 S 1008,2 9
10.12.2017 17:00:00 12,8 7,5 29 16 S 1009,0 8
10.12.2017 16:00:00 12,6 7,1 28 15 S 1009,5 9
10.12.2017 15:00:00 9,0 7,1 18 10 SSE 1010,8 12
10.12.2017 14:00:00 9,0 7,8 28 15 SE 1012,0 7
10.12.2017 13:00:00 9,4 -0,5 29 16 SE 1013,0 20
10.12.2017 12:00:00 8,6 -2,4 29 16 SE 1015,0 20
10.12.2017 11:00:00 7,6 -2,1 28 15 SE 1015,7 20
10.12.2017 10:00:00 1,0 -1,4 5 3 N 1016,8 25
10.12.2017 09:00:00 -0,8 -1,8 9 5 N 1016,9 10
10.12.2017 08:00:00 -1,0 -2,0 11 6 NNE 1016,8 20
10.12.2017 07:00:00 -1,0 -2,6 8 4 NE 1016,9 18
10.12.2017 06:00:00 0,8 -1,4 11 6 N 1017,1 15
10.12.2017 05:00:00 1,0 -0,9 8 4 NNE 1017,3 15
10.12.2017 04:00:00 1,6 -0,6 11 6 N 1017,9 15
10.12.2017 03:00:00 2,2 -0,1 11 6 NNE 1018,1 15
10.12.2017 02:00:00 2,4 -0,3 11 6 ENE 1018,2 15
10.12.2017 01:00:00 2,6 -0,5 5 3 NE 1018,4 15
10.12.2017 00:00:00 3,0 -0,3 5 3 N 1018,2 15
09.12.2017 23:00:00 3,8 -0,6 9 5 N 1017,8 15
09.12.2017 22:00:00 4,0 -1,4 5 3 N 1017,7 15
09.12.2017 21:00:00 2,6 -1,4 2 1 S 1017,3 15
09.12.2017 20:00:00 3,0 -1,7 9 5 NNE 1015,8 15
09.12.2017 19:00:00 5,0 -2,1 8 4 N 1015,8 15
09.12.2017 18:00:00 7,6 -2,4 11 6 ENE 1014,9 15
09.12.2017 17:00:00 8,0 -8,5 16 9 N 1013,6 25
09.12.2017 16:00:00 9,6 -13,6 15 8 WNW 1012,1 25
09.12.2017 15:00:00 10,6 -11,4 26 14 NW 1011,1 25
09.12.2017 14:00:00 11,0 -11,1 18 10 NNW 1010,8 25
09.12.2017 13:00:00 11,2 -8,6 11 6 NW 1010,3 25
09.12.2017 12:00:00 9,6 -3,3 9 5 NE 1010,5 20
09.12.2017 11:00:00 9,2 -3,7 11 6 N 1009,9 20
09.12.2017 10:00:00 9,2 -2,7 13 7 WNW 1009,2 15
09.12.2017 09:00:00 9,4 -1,3 11 6 NNW 1009,0 50
09.12.2017 08:00:00 9,4 -1,0 15 8 NE 1008,2 50
09.12.2017 07:00:00 10,0 2,4 26 14 WNW 1007,7 20
09.12.2017 06:00:00 10,0 2,6 34 18 W 1007,8 10
09.12.2017 05:00:00 10,0 1,6 28 15 W 1007,9 10
09.12.2017 04:00:00 10,0 1,6 15 8 SW 1008,9 10
09.12.2017 03:00:00 11,4 2,4 24 13 W 1009,1 10
09.12.2017 02:00:00 11,6 2,1 26 14 W 1009,2 10
09.12.2017 01:00:00 12,2 3,7 24 13 WNW 1009,6 10
09.12.2017 00:00:00 13,8 10,4 16 9 WNW 1009,8 10
08.12.2017 23:00:00 13,8 10,8 18 10 SW 1009,9 10
08.12.2017 22:00:00 13,8 11,0 16 9 SSW 1010,3 10
08.12.2017 21:00:00 14,2 10,8 18 10 SSW 1010,8 15
08.12.2017 20:00:00 14,2 9,8 29 16 SSW 1011,4 15
08.12.2017 19:00:00 14,2 9,8 28 15 SSW 1012,2 12
08.12.2017 18:00:00 14,2 10,4 28 15 SSW 1013,3 12

tt = Température de l'air
td = dewpoint
ff = Vitesse du vent
dd = Direction du vent
ppp = reduced air pressure
vv = visibility

stations d'obs. à proximité